Вернуться в каталог

COSMOS 886 DEB

АктивенLEO
NORAD 18518·DEBRIS·🇷🇺 Russia

Запущен Dec 27, 1976 с Baikonur Cosmodrome

Loading…

Ближайшие Пролёты (ближайшие 24 часа)

TLE

СвежийSource: Space-Track

Эпоха: Sep 14, 2026, 11:10 UTC

1 18518U 76126BW  26257.46553564  .00000375  00000-0  62611-3 0  9999
2 18518  65.7562 281.7419 0715065  16.8656  47.9266 12.81756628760108

Отслеживайте COSMOS 886 DEB в реальном времени с AllMySat

Download on the App Store